Location: Casteau
(50.5142°N, 4.0161°E)
Time: 06:19:31
(UTC+00:00)

Vanguard 1 Rocket - Pass Details

Date: 28 July 2021
Orbit: 650 x 4226 km, 34.3° (Epoch: 21 September)

Event Time Altitude Azimuth Distance (km) Brightness Sun altitude
Rises 09:10:53 0° 208° (SSW) 7,842 12.2 45.3°
Reaches altitude 10° 09:18:55 10° 195° (SSW) 6,207 11.9 46.4°
Maximum altitude 09:29:46 20° 158° (SSE) 4,342 11.8 47.9°
Drops below altitude 10° 09:37:20 10° 117° (ESE) 4,175 11.7 48.8°
Sets 09:41:10 0° 100° (E) 4,664 11.6 49.3°
